Bookmark and Share
Track history (hours):
 

Sea-land Charger

More information available from US FCC via Universal Licensing System.

Last reported at 2014-Apr-22 02:07 UTC. Time now 2014-Apr-23 12:53 UTC.
Position N 34°00' E 130°28'.

Type: Cargo ship. MMSI: 303279000.

NotesDate/timePositionNaut miles runAvg speedWind from/ knotsBaromVisibWave heightAir tempDewpointWater temp
2014-Apr-22 02:07N 34°00' E 130°28'813.2
2014-Apr-22 01:31N 33°57' E 130°19'1212.6
2014-Apr-22 00:33N 33°46' E 130°14'9 9.5
2014-Apr-21 23:33N 33°38' E 130°22'3 2.5
2014-Apr-21 22:32N 33°39' E 130°24'0 0.0
2014-Apr-21 21:32N 33°39' E 130°24'0 0.0
2014-Apr-21 20:32N 33°39' E 130°24'0 0.0
2014-Apr-21 19:32N 33°39' E 130°24'0 0.0
2014-Apr-21 18:32N 33°39' E 130°24'0 0.0
2014-Apr-21 17:32N 33°39' E 130°24'0 0.0
2014-Apr-21 16:32N 33°39' E 130°24'0 0.2
2014-Apr-21 15:33N 33°39' E 130°24'8 7.6
2014-Apr-21 14:34N 33°41' E 130°15'1110.7
2014-Apr-21 13:33N 33°51' E 130°12'  
2014-Apr-14 09:30N 34°02' E 130°51'203 8.1
2014-Apr-13 08:33N 33°56' E 134°56'1111.0
2014-Apr-13 07:33N 34°07' E 134°56'1110.7
2014-Apr-13 06:33N 34°18' E 134°59'1817.9
2014-Apr-13 05:33N 34°31' E 135°13'10 9.8
2014-Apr-13 04:33N 34°41' E 135°16'0 0.0
2014-Apr-13 03:32N 34°41' E 135°16'0 0.0
2014-Apr-13 02:32N 34°41' E 135°16'0 0.0
2014-Apr-13 01:32N 34°41' E 135°16'0 0.0
2014-Apr-13 00:32N 34°41' E 135°16'1 0.9
2014-Apr-12 23:33N 34°40' E 135°15'10 9.9
2014-Apr-12 22:33N 34°31' E 135°12'1413.9
2014-Apr-12 21:33N 34°20' E 135°01'1212.1
2014-Apr-12 20:33N 34°08' E 134°59'10 9.8
2014-Apr-12 19:32N 33°58' E 134°59'  

Dump ship's entire track history

sailing weather and tide predictions

Sea-land Charger — WDB9948 — position and weather